Home   Weather   Toulon   Past weeks

Flag for France Past Weather in Toulon, Provence-Alpes-Côte d'Azur, France — Yesterday and Last 2 Weeks

Now
61 °F

Clear.


Feels Like: 61 °F
Forecast: 55 / 80 °F
Wind: 2 mph from North

Location: Hyeres Airport

Current Time: Sep 27, 2016 at 2:25:41 AM

Latest Report: Sep 27, 2016 at 1:30 AM


Visibility: 10 mi

Pressure: 30.12 "Hg

Humidity: 94%

Dew Point: 59 °F

Location of ToulonLocation

Past Weather in Toulon — Graph

°F

Toulon Temperature Yesterday

Maximum temperature yesterday: 77 °F (at 11:30 AM)
Minimum temperature yesterday: 57 °F (at 3:30 AM)
Average temperature yesterday: 68 °F

High & Low Weather Summary for the Past Weeks

 TemperatureHumidityPressure
High84 °F (Sep 12, 11:30 AM)94% (Sep 14, 5:30 AM)30.24 "Hg (Sep 14, 5:30 AM)
Low57 °F (Sep 19, 6:30 AM)29% (Sep 17, 6:00 PM)29.77 "Hg (Sep 18, 5:00 PM)
Average70 °F66%29.99 "Hg
* Reported Sep 12 1:00 AM — Sep 27 1:00 AM, Toulon, Weather by CustomWeather, © 2016

Note: Actual official high and low records may vary slightly from our data, if they occured in-between our weather recording intervals... More about our weather records

Advertising

Toulon Weather History for the Previous 24 Hours

Scroll right to see more
 ConditionsComfort  
Time TempWeatherWind HumidityBarometerVisibility
1:00 AM
Tue, Sep 27
63 °FClear.3 mph83%30.12 "Hg10 mi
12:30 AM64 °FClear.6 mph88%30.12 "Hg10 mi
12:00 AM63 °FClear.5 mph94%30.12 "Hg10 mi
11:30 PM
Mon, Sep 26
63 °FClear.5 mph88%30.12 "Hg10 mi
11:00 PM63 °FClear.5 mph88%30.12 "Hg10 mi
10:30 PM63 °FClear.3 mph94%30.12 "Hg10 mi
10:00 PM64 °FClear.5 mph88%30.12 "Hg10 mi
9:30 PM64 °FClear.6 mph88%30.12 "Hg10 mi
9:00 PM64 °FClear.2 mph83%30.12 "Hg10 mi
8:30 PM66 °FClear.2 mph83%30.12 "Hg10 mi
8:00 PM68 °FClear.2 mph78%30.09 "Hg10 mi
7:30 PM70 °FClear.1 mph78%30.09 "Hg10 mi
7:00 PM72 °FSunny.2 mph73%30.09 "Hg10 mi
6:30 PM72 °FSunny.2 mph73%30.07 "Hg10 mi
6:00 PM73 °FSunny.3 mph69%30.07 "Hg10 mi
5:30 PM73 °FPassing clouds.5 mph74%30.07 "HgN/A
4:30 PM75 °FPartly sunny.9 mph69%30.07 "HgN/A
4:00 PM77 °FSunny.10 mph65%30.07 "Hg10 mi
3:30 PM77 °FWarm.14 mph65%30.07 "HgN/A
3:00 PM77 °FWarm.14 mph65%30.07 "HgN/A
2:30 PM77 °FWarm.14 mph65%30.07 "HgN/A
2:00 PM77 °FSunny.13 mph61%30.07 "Hg10 mi
1:30 PM77 °FSunny.14 mph61%30.07 "Hg10 mi
1:00 PM77 °FPassing clouds.14 mph65%30.07 "HgN/A
12:30 PM77 °FPassing clouds.13 mph61%30.07 "HgN/A
12:00 PM77 °FPassing clouds.9 mph61%30.09 "HgN/A
11:30 AM77 °FPassing clouds.10 mph61%30.07 "HgN/A
11:00 AM75 °FSunny.12 mph65%30.07 "Hg10 mi
10:30 AM75 °FPassing clouds.8 mph65%30.07 "HgN/A
10:00 AM73 °FPassing clouds.6 mph65%30.07 "HgN/A
9:30 AM70 °FPassing clouds.7 mph73%30.07 "HgN/A
9:00 AM68 °FSunny.7 mph73%30.07 "Hg10 mi
8:30 AM66 °FSunny.7 mph78%30.07 "Hg10 mi
8:00 AM64 °FScattered clouds.7 mph78%30.07 "HgN/A
7:30 AM63 °FSunny.7 mph83%30.04 "Hg10 mi
7:00 AM63 °FClear.7 mph83%30.04 "Hg10 mi
6:30 AM61 °FClear.7 mph88%30.04 "Hg10 mi
6:00 AM59 °FClear.6 mph82%30.04 "Hg10 mi
5:30 AM59 °FClear.3 mph82%30.04 "Hg10 mi
5:00 AM59 °FClear.5 mph88%30.04 "Hg10 mi
4:30 AM59 °FClear.2 mph88%30.04 "Hg10 mi
4:00 AM59 °FPassing clouds.5 mph88%30.04 "HgN/A
3:30 AM57 °FClear.3 mph88%30.04 "Hg10 mi
3:00 AM59 °FClear.2 mph82%30.04 "Hg10 mi
2:30 AM59 °FClear.No wind88%30.04 "Hg10 mi
2:00 AM59 °FClear.5 mph88%30.04 "Hg10 mi
Weather by CustomWeather, © 2016

See weather overviewHow to use our weather pages